This is the latest recevied weather packets stored in our database for station/object G1YBJ-13. If no packets are shown the sender has not sent any weather packets the latest 10 day(s).
| Time | Temp. | Humidity | Pressure | Rain* | Wind** | Luminosity | Snow |
|---|---|---|---|---|---|---|---|
| 1777347634 | 9.44° C | 94% | 1025.1 hPa | - | - | - | - |
| 1777346733 | 9.44° C | 93% | 1025 hPa | - | - | - | - |
| 1777345831 | 9.44° C | 92% | 1025.1 hPa | - | - | - | - |
| 1777344931 | 8.89° C | 93% | 1025.1 hPa | - | - | - | - |
| 1777344029 | 8.89° C | 91% | 1025 hPa | - | - | - | - |
| 1777343128 | 8.89° C | 91% | 1025 hPa | - | - | - | - |
| 1777342227 | 8.89° C | 89% | 1025 hPa | - | - | - | - |
| 1777341326 | 8.89° C | 89% | 1025.1 hPa | - | - | - | - |
| 1777340425 | 8.89° C | 85% | 1025.2 hPa | - | - | - | - |
| 1777339523 | 8.89° C | 87% | 1025.4 hPa | - | - | - | - |
| 1777338621 | 8.89° C | 85% | 1025.4 hPa | - | - | - | - |
| 1777337721 | 8.89° C | 84% | 1025.4 hPa | - | - | - | - |
| 1777336819 | 8.89° C | 84% | 1025.5 hPa | - | - | - | - |
| 1777335918 | 9.44° C | 82% | 1025.5 hPa | - | - | - | - |
| 1777335016 | 9.44° C | 83% | 1025.6 hPa | - | - | - | - |
| 1777334115 | 9.44° C | 83% | 1025.7 hPa | - | - | - | - |
| 1777333214 | 8.89° C | 84% | 1025.6 hPa | - | - | - | - |
| 1777332314 | 8.89° C | 85% | 1025.7 hPa | - | - | - | - |
| 1777331412 | 8.89° C | 85% | 1025.5 hPa | - | - | - | - |
| 1777330511 | 9.44° C | 85% | 1025.5 hPa | - | - | - | - |
| 1777329610 | 9.44° C | 83% | 1025.5 hPa | - | - | - | - |
| 1777328709 | 10° C | 84% | 1025.3 hPa | - | - | - | - |
| 1777327808 | 10° C | 82% | 1025.2 hPa | - | - | - | - |
| 1777326906 | 10.56° C | 80% | 1025.1 hPa | - | - | - | - |
| 1777326003 | 10.56° C | 78% | 1025.1 hPa | - | - | - | - |
* Rain since midnight (hover to see other rain measurements)
** Current wind speed in m/s (hover to see current wind gust speed)